Location: Home
(42.5358°N, 72.7383°W)
Time: 09:20:27
(UTC-05:00)

deb Explorer IX - Pass Details

Date: 30 November 2021
Orbit: 544 x 1082 km, 38.8° (Epoch: 19 January)

Event Time Altitude Azimuth Distance (km) Brightness Sun altitude
Rises 13:32:21 0° 261° (W) 2,733 ? 20.7°
Reaches altitude 10° 13:34:40 10° 256° (WSW) 1,813 ? 20.5°
Maximum altitude 13:38:37 51° 180° (S) 689 ? 20.1°
Drops below altitude 10° 13:42:39 10° 104° (ESE) 1,837 ? 19.7°
Sets 13:45:00 0° 99° (E) 2,773 ? 19.5°
